Weather History for KNJK - February, 2012

Change the Weather History Date:

Friday, February 24, 2012

  Actual Average Record
Temperature  
Mean Temperature 64 °F -  
Max Temperature 79 °F 69 °F 84 °F (2009)
Min Temperature 50 °F 48 °F 37 °F (2007)
Growing Degree Days 14 (Base 50)    
Moisture  
Dew Point 28 °F    
Average Humidity 29    
Maximum Humidity 45    
Minimum Humidity 11    
Precipitation  
Precipitation 0.00 in - - ()
Sea Level Pressure  
Sea Level Pressure 30.07 in    
Wind  
Wind Speed 6 mph (SW)    
Max Wind Speed 9 mph    
Max Gust Speed -    
Visibility 10 miles    
Events      
Averages and records for this station are not official NWS values.
T = Trace of Precipitation, MM = Missing Value Source: NWS Daily Summary

Daily Weather History Graph

Daily Weather History Graph

Search for Another Location

Airport or City:

Trip Planner

Search our weather history database for the weather conditions in past years. The results will help you decide how hot, cold, wet, or windy it might be!

Date:

Astronomy

Feb. 24, 2012 Rise Set
Actual Time 6:16 AM PST 5:35 PM PST
Civil Twilight 5:51 AM PST 6:00 PM PST
Nautical Twilight 5:23 AM PST 6:29 PM PST
Astronomical Twilight 4:54 AM PST 6:57 PM PST
Moon 7:26 AM PST (2/24) 8:28 PM PST (2/24)
Length of Visible Light 12h 08m
Length of Day
11h 18m
Waxing Crescent, 8% of the Moon is Illuminated
Feb 24
Waxing Crescent
Feb 29
First Quarter
Mar 8
Full
Mar 14
Last Quarter
Mar 22
New

Hourly Weather History & Observations

Time (PST) Temp. Dew Point Humidity Pressure Visibility Wind Dir Wind Speed Gust Speed Precip Events Conditions
12:56 AM 55.9 °F 33.1 °F 42% 29.95 in 10.0 mi WNW 8.1 mph - N/A   Clear
1:56 AM 57.0 °F 33.1 °F 40% 29.97 in 10.0 mi SW 6.9 mph - N/A   Clear
2:56 AM 53.1 °F 30.0 °F 41% 29.97 in 10.0 mi West 8.1 mph - N/A   Clear
3:56 AM 54.0 °F 33.1 °F 45% 30.00 in 10.0 mi WSW 8.1 mph - N/A   Clear
4:56 AM 51.1 °F 28.9 °F 43% 30.02 in 10.0 mi WNW 8.1 mph - N/A   Clear
5:56 AM 50.0 °F 28.9 °F 44% 30.05 in 10.0 mi West 9.2 mph - N/A   Clear
6:56 AM 52.0 °F 28.9 °F 41% 30.09 in 10.0 mi WSW 4.6 mph - N/A   Clear
7:56 AM 60.1 °F 37.0 °F 42% 30.11 in 10.0 mi West 5.8 mph - N/A   Clear
8:56 AM 68.0 °F 41.0 °F 37% 30.14 in 10.0 mi SW 3.5 mph - N/A   Clear
9:56 AM 73.9 °F 33.1 °F 22% 30.14 in 10.0 mi Variable 3.5 mph - N/A   Clear
10:56 AM 75.9 °F 26.1 °F 16% 30.14 in 10.0 mi Variable 4.6 mph - N/A   Clear
11:56 AM 78.1 °F 23.0 °F 13% 30.12 in 10.0 mi East 5.8 mph - N/A   Clear
12:56 PM 78.8 °F 21.2 °F 12% 30.05 in 10.0 mi East 5.8 mph - N/A   Clear
1:56 PM 79.0 °F 19.9 °F 11% 30.08 in 10.0 mi East 4.6 mph - N/A   Clear
2:56 PM 78.1 °F 28.9 °F 17% 30.06 in 10.0 mi South 5.8 mph - N/A   Clear
3:56 PM 78.1 °F 23.0 °F 13% 30.06 in 10.0 mi SE 3.5 mph - N/A   Clear
4:56 PM 73.9 °F 32.0 °F 21% 30.05 in 10.0 mi South 8.1 mph - N/A   Clear
5:56 PM 70.0 °F 28.9 °F 22% 30.06 in 10.0 mi SSW 5.8 mph - N/A   Clear
6:56 PM 66.0 °F 24.1 °F 20% 30.07 in 10.0 mi SSW 4.6 mph - N/A   Clear
7:56 PM 63.0 °F 21.9 °F 21% 30.08 in 10.0 mi Calm Calm - N/A   Clear
8:56 PM 61.0 °F 27.0 °F 27% 30.09 in 10.0 mi South 3.5 mph - N/A   Clear
9:56 PM 55.9 °F 27.0 °F 33% 30.09 in 10.0 mi WSW 3.5 mph - N/A   Clear
10:56 PM 55.9 °F 25.0 °F 30% 30.09 in 10.0 mi WSW 5.8 mph - N/A   Clear
11:56 PM 51.1 °F 25.0 °F 36% 30.08 in 10.0 mi West 9.2 mph - N/A   Clear